Regional Weather Roundup
Issued by NWS Austin/San Antonio, TX

Current Version | Previous Version | Text Only | Print | Product List | Glossary On
Versions: 1 2 3 4 5 6 7 8 9 10 11 12 13 14 15 16 17 18 19 20 21 22 23 24 25 26 27 28 29 30 31 32 33 34 35 36 37 38 39 40 41 42 43 44 45 46 47 48 49 50
000
ASUS44 KEWX 181001
RWREWX
SOUTH TEXAS REGIONAL WEATHER ROUNDUP
NATIONAL WEATHER SERVICE AUSTIN/SAN ANTONIO TX
500 AM CDT FRI JUN 18 2021

NOTE: "FAIR" INDICATED FEW OR NO CLOUDS BELOW 12,000 FEET WITH NO
SIGNIFICANT WEATHER AND/OR OBSTRUCTIONS TO VISIBILITY.

* - THESE STATIONS ARE NOT NWS OR FAA STATIONS...AND ARE NOT SUBJECT
    TO NWS AND FAA QUALITY CONTROL.

TXZ171-172-183>190-181100-
TEXAS HILL COUNTRY AND EDWARDS PLATEAU

CITY           SKY/WX    TMP DP  RH WIND       PRES   REMARKS
JUNCTION       CLEAR     68  63  84 CALM      30.01S
*LLANO         PTCLDY    70  66  88 CALM      29.96S
BURNET         CLEAR     75  68  78 NE3       29.99F
*HORSESHOE BAY CLEAR     73  67  83 CALM      29.98S
*LAGO VISTA    CLEAR     74  65  73 S3        29.98S
*KERRVILLE     CLEAR     67  65  91 CALM      30.00F
*FREDERICKSBRG CLEAR    N/A N/A N/A CALM      30.00S
*ROCKSPRINGS     N/A     70  63  78 MISG      30.08S
*BOERNE        CLEAR     68  68 100 CALM      29.99F
*CASTROVILLE   PTCLDY    75  70  86 CALM      29.97F
HONDO          CLEAR     70  67  90 NE6       29.97R
*UVALDE        CLEAR     69  69 100 NE5       29.98S
DEL RIO        CLEAR     78  63  59 E6        29.94S
*LAUGHLIN AFB  CLEAR     72  63  72 NE7       29.95S
*SPOFFORD      CLEAR     70  65  85 E3        29.89S
*EAGLE PASS    CLEAR     73  64  73 CALM      29.93S
CARRIZO SPRGS  PTCLDY    73  64  73 CALM      29.92F
$$

TXZ173-191>194-202-209-217>225-228-181100-
CENTRAL AND SOUTH CENTRAL TEXAS

CITY           SKY/WX    TMP DP  RH WIND       PRES   REMARKS
GEORGETOWN     CLEAR     75  70  84 CALM      29.97F
*TAYLOR        CLEAR     72 N/A N/A SE5       29.95S
AUSTIN/BERGSTM CLEAR     73  71  93 SW6       29.94F
AUSTIN/MABRY   CLEAR     78  69  73 CALM      29.96S
*PFLUGERVILLE  CLEAR     75  72  88 CALM      29.94S
SAN MARCOS     CLEAR     72  72 100 SE5       29.96S
NEW BRAUNFELS  MOCLDY    76  72  87 CALM      29.94S
*RANDOLPH AFB  PTCLDY    74  71  91 CALM      29.94S
*SEGUIN        PTCLDY    74  71  90 CALM      29.98F
SAN ANTONIO    PTCLDY    78  70  76 S5        29.96S
STINSON FIELD  PTCLDY    78  73  84 CALM      29.93F
*KELLY FIELD   CLEAR     74  71  89 CALM      29.94S
*PLEASANTON    PTCLDY    74  72  91 CALM      29.94F
*KENEDY        MOCLDY    77  73  86 CALM      29.94S
*LA GRANGE     CLEAR     77  77 100 CALM      29.92F
*GIDDINGS      MOCLDY    74  71  92 CALM      29.96S
*GONZALES      CLOUDY    78  72  82 CALM      29.93F
$$

TXZ163>164-176>182-195>201-210>213-226-227-235-181100-
SOUTHEAST TEXAS

CITY           SKY/WX    TMP DP  RH WIND       PRES   REMARKS
COLLEGE STN    CLEAR     76  70  82 CALM      29.95S
*BRYAN         CLEAR     71  71 100 CALM      29.96F
*CALDWELL      CLEAR     71  69  93 CALM      29.96S
*CROCKETT      CLEAR     68  68 100 CALM      29.96S
*BRENHAM       CLEAR     73  70  93 CALM      29.95S
HUNTSVILLE     CLEAR     72  67  84 CALM      29.95F
CONROE         CLEAR     67  66  97 CALM      29.95S FOG
HOUSTON BUSH   CLEAR     73  68  83 CALM      29.93S
HOUSTON HOBBY  CLEAR     76  67  73 N6        29.91F
*HOUSTON SW AP CLEAR     72  69  88 CALM      29.93S
PEARLAND       CLEAR     74  68  81 CALM      29.92F
HOUSTON HOOKS  CLEAR     72  69  90 CALM      29.94S
ELLINGTON FLD  PTCLDY    75  68  78 CALM      29.91S
SUGAR LAND     CLEAR     72  68  87 N3        29.92S
*HOUSTON EXEC  NOT AVBL
*CLEVELAND MUN CLEAR     69  69 100 CALM      29.95S
*WHARTON         N/A     68  65  90 N5        29.93S
*COLUMBUS      FAIR      72  71  96 CALM      29.94S
*EAGLE LAKE    NOT AVBL
$$

TXZ214>216-236>238-181100-
THE UPPER TEXAS COAST

CITY           SKY/WX    TMP DP  RH WIND       PRES   REMARKS
*ORANGE        CLEAR     70  67  89 CALM      29.93F
PORT ARTHUR    CLEAR     73  67  81 NE6       29.91F
GALVESTON      CLEAR     82  68  62 NE9       29.91S
ANGLETON       CLEAR     69  66  90 N6        29.91S
*BAY CITY      CLEAR     68  67  95 N3        29.91S
PALACIOS       CLEAR     70  68  93 NE5       29.90F
$$

TXZ229>234-239>247-181100-
TEXAS COASTAL BEND AND RIO GRANDE PLAINS

CITY           SKY/WX    TMP DP  RH WIND       PRES   REMARKS
VICTORIA       CLEAR     74  70  87 N6        29.92S
*BEEVILLE      MOCLDY    75  75 100 N3        29.91S
ROCKPORT       CLEAR     80  72  76 N6        29.89S
*PORT ARANSAS  MOCLDY    83  68  60 NE6       29.90S
*PORT LAVACA   CLEAR     75  70  85 N5        29.92S
*INGLESIDE     PTCLDY    79  73  81 N5        29.89S
CORPUS CHRISTI MOCLDY    77  71  82 NW5       29.89S
CORPUS NAS     PTCLDY    83  66  56 E6        29.88F
*ROBSTOWN      CLEAR     76  73  89 N3        29.90S
ALICE          NOT AVBL
KINGSVILLE NAS PTCLDY    73  71  93 N3        29.89S
COTULLA        PTCLDY    76  69  79 CALM      29.93S
LAREDO         NOT AVBL
$$

TXZ248>255-181100-
DEEP SOUTH TEXAS

CITY           SKY/WX    TMP DP  RH WIND       PRES   REMARKS
BROWNSVILLE    NOT AVBL
PORT ISABEL    CLEAR     76  72  87 NW7       29.87F
HARLINGEN      NOT AVBL
*HEBBRONVILLE  PTCLDY    71  63  75 CALM      29.93S
MCALLEN        NOT AVBL
*WESLACO       MOCLDY    73  70  90 CALM      29.87F
FALFURRIAS     PTCLDY    70  69  97 CALM      29.89F
EDINBURG       CLEAR     72  72  98 NW5       29.89S
*ZAPATA        CLEAR     71  65  82 CALM      29.92S
$$

TXZ213>215-236>238-242>244-246-247-251-254-255-181100-
CMAN STATIONS

STATION/POSITION TIME  TEMP    WIND        PRES    WAVE
                       AIR SEA DIR/SP/G            HT/PER
                 (UTC) (F)     (DEG/KT/KT) (MB)    (FT/S)
NORTH JETTY/GLS  0930   82 83   40/ 12/ 13 1011.5
EAGLE POINT      0930   83 85   50/ 10/ 11 1012.3
MORGANS POINT    0930   77 85   20/  6/  8 1013.1
MISSION/ARANSAS  0900   82     360/  5     1013.0
PORT O`CONNOR    0930   82 88   90/  9/ 11 1012.1
PORT ARANSAS     0900   84 85   60/  9/  9   N/A
MALAQUITE BEACH  0930   84      50/  8/ 10   N/A
BAFFIN BAY       0930   82 87   90/  2/  4 1011.5
PORT ISABEL      0930   80 84  360/  2/  3 1012.5
$$



USA.gov is the U.S. government's official web portal to all federal, state and local government web resources and services.